Tracking 27420 objects as of 28-May-2023
HD Live streaming from Space Station
objects crossing your sky now

CZ-4 DEB

Track CZ-4 DEB now!
10-day predictions


NORAD ID: 37610
Int'l Code: 1990-081CW
Perigee: 871.0 km
Apogee: 1,094.3 km
Inclination: 99.1 °
Period: 104.6 minutes
Semi major axis: 7353 km
RCS: 0.0013 m2 (small)
Launch date: September 3, 1990
Source: People's Republic of China (PRC)
Launch site: Taiyaun Space Center, China (TSC)

Note: This is SATELLITE DEBRIS
Your satellite tracking list
Your tracking list is empty




NASA's NSSDC Master Catalog

Two Line Element Set (TLE):
1 37610U 90081CW  23146.62106790  .00000284  00000-0  30682-3 0  9998
2 37610  99.1496  68.9824 0151791 297.8506  60.7336 13.76725477553664
Source of the keplerian elements: AFSPC